www.pogodaiklimat.ru

Погода и климат >> Архив погоды >> Австралия >> Longreach Airport


ПОГОДА в Longreach Airport

  • Прогноз погоды в Longreach Airport
  • Монитор погоды в Longreach Airport
  • Климат города

АРХИВ ПОГОДЫ в Longreach Airport

Время (UTC), дата Ветер
(напр.,м/с)
 
Видим.   Явления Облачность Т
(С)
Тd
(С)
f
(%)
Тe
(С)
Тes
(С)
Комфортность P
(гПа)
Po
(гПа)
Тmin
(С)
Tmax
(С)
R
(мм)
R24
(мм)
S
(см)
14 12.09 СВ 5 н/о н/о +22.2 +1.8 26 +22 +22 комфорт 1013.4 991.2 +34.1
15 12.09 СВ 3 н/о н/о +19.9 +0.9 28 +20 +20 1013.2 991.0
17 12.09 СВ 5 н/о н/о +19.5 +2.4 32 +20 +20 1012.4 990.2
18 12.09 СВ 4 н/о н/о +18.3 +3.0 36 +18 +18 1012.3 990.1
20 12.09 СВ 5 н/о н/о +17.1 +6.0 48 +17 +17 1013.4 991.2
21 12.09 СВ 4 н/о н/о +18.4 +8.7 53 +19 +19 1014.3 992.0
23 12.09 С 9 н/о н/о +25.8 +12.3 43 +27 +27 жарко 1014.6 992.3
00 13.09 С 8 н/о н/о +28.3 +10.5 33 +29 +29 жарко 1014.5 992.2
02 13.09 С 7 н/о н/о +32.8 +5.4 18 +31 +31 жарко 1012.7 990.5 +16.5
03 13.09 С 6 н/о н/о +33.9 +3.7 15 +31 +31 жарко 1011.4 989.2
05 13.09 Ю 3 н/о 9/0
[]
+34.6 +3.2 14 +32 +37 жарко 1009.7 987.5
06 13.09 З 4 н/о н/о +34.0 +3.7 15 +31 +31 жарко 1009.3 987.1
08 13.09 С 3 н/о 6/0
[]
+32.8 +1.8 14 +30 +30 жарко 1009.4 987.2
09 13.09 штиль 0 н/о н/о +28.9 +0.6 16 +26 +26 жарко 1010.1 987.9
11 13.09 СВ 4 н/о 3/0
[]
+25.3 +2.1 22 +24 +24 комфорт 1011.1 988.9
12 13.09 СЗ 4 н/о н/о +23.5 +1.8 24 +23 +23 комфорт 1012.2 990.0
14 13.09 ЮЗ 9 н/о н/о +24.2 +3.5 26 +24 +24 комфорт 1014.2 991.9 +35.9
15 13.09 ЮЗ 8 н/о н/о +22.3 +3.9 30 +22 +22 комфорт 1014.8 992.5
17 13.09 Ю 8 н/о н/о +19.7 +2.6 32 +19 +19 1016.3 994.0
18 13.09 Ю 9 н/о н/о +18.4 +1.9 33 +18 +18 1016.9 994.6
20 13.09 Ю 7 н/о н/о +15.6 -1.0 32 +14 +14 1018.9 996.5
21 13.09 Ю 6 н/о н/о +15.5 -0.7 33 +14 +14 1020.1 997.7
23 13.09 Ю 11 н/о н/о +19.0 -3.8 21 +18 +18 1021.8 999.4
00 14.09 Ю 9 н/о н/о +20.5 -3.2 20 +20 +20 1021.6 999.2
02 14.09 Ю 8 н/о н/о +22.8 -7.0 13 +21 +21 комфорт 1020.6 998.2 +15.3
03 14.09 Ю 9 н/о н/о +24.1 -7.0 12 +22 +22 комфорт 1019.6 997.2
05 14.09 Ю 7 н/о н/о +26.3 -9.1 9 +23 +23 комфорт 1017.9 995.6
06 14.09 Ю 8 н/о н/о +25.9 -9.4 9 +23 +23 комфорт 1017.7 995.4
08 14.09 Ю 6 н/о н/о +23.9 -10.9 9 +21 +21 комфорт 1018.4 996.0
09 14.09 Ю 4 н/о н/о +20.9 -10.6 11 +20 +20 1019.4 997.0
11 14.09 Ю 5 н/о н/о +18.2 -10.6 13 +18 +18 1020.8 998.4
12 14.09 Ю 4 н/о н/о +15.2 -10.4 16 +14 +14 1021.1 998.7
14 14.09 Ю 4 н/о н/о +12.0 -10.9 19 +11 +11 1021.2 998.8 +27.7
15 14.09 Ю 4 н/о н/о +10.7 -10.7 21 +9 +9 1021.2 998.8
17 14.09 Ю 4 н/о н/о +9.5 -10.0 24 +8 +8 1021.0 998.6
18 14.09 Ю 4 н/о н/о +8.4 -9.5 27 +6 +6 1021.4 999.0
20 14.09 ЮВ 4 н/о н/о +8.3 -9.6 27 +6 +6 1022.4 1000.0
21 14.09 ЮВ 5 н/о н/о +9.2 -9.3 26 +7 +7 1023.1 1000.6
23 14.09 ЮВ 8 н/о н/о +18.7 -6.1 18 +18 +18 1024.0 1001.5
00 15.09 ЮВ 6 н/о н/о +21.3 -5.5 16 +20 +20 1024.1 1001.6
02 15.09 ЮВ 4 н/о н/о +23.4 -7.6 12 +21 +21 комфорт 1022.1 999.7 +7.6
03 15.09 ЮВ 4 н/о н/о +26.1 -7.9 10 +23 +23 комфорт 1021.0 998.6
05 15.09 Ю 6 н/о н/о +27.6 -8.1 9 +24 +24 комфорт 1019.0 996.6
06 15.09 ЮВ 5 н/о н/о +27.4 -8.2 9 +24 +24 комфорт 1018.5 996.1
08 15.09 Ю 5 н/о н/о +25.1 -8.6 10 +22 +22 комфорт 1019.4 997.0
09 15.09 Ю 4 н/о н/о +21.1 -9.4 12 +20 +20 1019.8 997.4
11 15.09 ЮВ 3 н/о н/о +15.6 -9.3 17 +15 +15 1020.8 998.4
12 15.09 В 4 н/о н/о +15.2 -9.7 17 +15 +15 1020.6 998.2
14 15.09 Ю 4 н/о н/о +12.7 -9.7 20 +11 +11 1020.5 998.1 +28.0
15 15.09 Ю 5 н/о н/о +12.6 -9.1 21 +11 +11 1020.1 997.7
17 15.09 ЮВ 4 н/о н/о +10.1 -10.1 23 +8 +8 1019.6 997.2
18 15.09 ЮВ 5 н/о н/о +10.9 -9.4 23 +9 +9 1019.6 997.2
20 15.09 ЮВ 4 н/о н/о +9.3 -9.2 26 +7 +7 1021.0 998.6
21 15.09 ЮВ 4 н/о н/о +10.6 -8.6 25 +9 +9 1021.9 999.5
23 15.09 В 5 н/о н/о +21.0 -5.7 16 +20 +20 1023.2 1000.7
00 16.09 В 5 н/о н/о +24.6 -5.6 13 +22 +22 комфорт 1022.2 999.8
02 16.09 В 4 н/о н/о +27.5 -8.2 9 +24 +24 комфорт 1019.9 997.5 +8.7
03 16.09 СВ 4 н/о н/о +29.1 -8.5 8 +25 +25 комфорт 1019.0 996.6
05 16.09 ЮЗ 4 н/о 5/0
[]
+28.1 -9.2 8 +24 +31 комфорт 1017.4 995.1
06 16.09 Ю 4 н/о н/о +28.3 -9.1 8 +25 +25 комфорт 1017.2 994.9
08 16.09 Ю 4 н/о 1/0
[]
+26.2 -9.1 9 +23 +23 комфорт 1018.1 995.8
09 16.09 Ю 3 н/о н/о +23.5 -9.8 10 +21 +21 комфорт 1018.9 996.5
11 16.09 Ю 3 н/о 9/0
[]
+19.4 -10.7 12 +19 +19 1019.9 997.5
12 16.09 Ю 6 н/о н/о +20.3 -10.0 12 +19 +19 1020.3 997.9
14 16.09 Ю 5 н/о 5/0
[]
+18.2 -8.8 15 +18 +18 1020.4 998.0 +29.8
15 16.09 Ю 5 н/о н/о +16.8 -8.4 17 +16 +16 1020.1 997.7
17 16.09 ЮВ 4 н/о н/о +12.2 -8.9 22 +11 +11 1019.5 997.1
18 16.09 ЮВ 4 н/о н/о +11.1 -9.2 23 +9 +9 1019.5 997.1
20 16.09 Ю 5 н/о н/о +11.5 -8.3 24 +10 +10 1020.7 998.3
21 16.09 ЮВ 4 н/о н/о +12.0 -8.5 23 +11 +11 1021.3 998.9
23 16.09 В 7 н/о н/о +22.8 -6.1 14 +21 +21 комфорт 1021.7 999.3
00 17.09 В 5 н/о н/о +25.8 -4.7 13 +23 +23 комфорт 1021.6 999.2
02 17.09 В 5 н/о н/о +28.4 -2.6 13 +26 +26 жарко 1020.0 997.6 +10.6
03 17.09 СВ 5 н/о н/о +29.4 -4.1 11 +26 +26 жарко 1019.0 996.6
05 17.09 С 3 н/о н/о +31.2 -5.4 9 +27 +27 жарко 1016.9 994.6
06 17.09 ЮВ 2 н/о н/о +30.8 -5.7 9 +27 +27 жарко 1016.6 994.3
08 17.09 В 3 н/о н/о +28.6 -6.0 10 +25 +25 комфорт 1017.4 995.1
09 17.09 ЮВ 3 н/о н/о +24.9 -5.4 13 +23 +23 комфорт 1018.0 995.7
11 17.09 ЮВ 4 н/о н/о +21.6 -8.0 13 +20 +20 1019.3 996.9
12 17.09 ЮВ 4 н/о н/о +20.0 -9.2 13 +20 +20 1019.5 997.1
14 17.09 В 6 н/о н/о +20.1 -6.5 16 +19 +19 1019.5 997.1 +32.0
15 17.09 В 4 н/о н/о +17.2 -8.0 17 +17 +17 1019.0 996.6
17 17.09 В 3 н/о н/о +15.8 -3.6 26 +16 +16 1018.4 996.0
18 17.09 В 4 н/о н/о +13.7 -2.7 32 +13 +13 1018.5 996.1
20 17.09 СВ 5 н/о н/о +15.6 +1.7 39 +15 +15 1019.4 997.0
21 17.09 СВ 5 н/о н/о +16.8 +3.5 41 +16 +16 1020.1 997.7
23 17.09 СВ 9 н/о н/о +24.6 +6.8 32 +25 +25 комфорт 1021.3 998.9
00 18.09 СВ 9 н/о н/о +27.0 +6.4 27 +26 +26 жарко 1021.0 998.6
02 18.09 СВ 8 н/о н/о +30.0 +3.1 18 +28 +28 жарко 1019.6 997.2 +13.4
03 18.09 СВ 7 н/о н/о +29.8 +0.4 15 +27 +27 жарко 1018.6 996.2
05 18.09 СВ 5 н/о н/о +31.4 -0.3 13 +28 +28 жарко 1016.8 994.5
06 18.09 СВ 6 н/о н/о +31.0 -0.6 13 +28 +28 жарко 1016.5 994.2
08 18.09 В 5 н/о н/о +28.6 +1.2 17 +26 +26 жарко 1016.8 994.5
09 18.09 СВ 4 н/о н/о +24.4 +0.7 21 +23 +23 комфорт 1017.6 995.3
11 18.09 СВ 3 н/о н/о +21.1 +0.9 26 +21 +21 комфорт 1018.9 996.5
12 18.09 СВ 4 н/о н/о +20.4 +1.3 28 +21 +21 комфорт 1019.1 996.7
14 18.09 В 3 н/о н/о +18.4 +2.3 34 +19 +19 1018.9 996.5 +32.6
15 18.09 ЮВ 4 н/о н/о +16.9 +0.1 32 +17 +17 1018.9 996.5
17 18.09 СВ 7 н/о н/о +19.7 +5.4 39 +20 +20 1018.0 995.7
18 18.09 СВ 7 н/о н/о +18.8 +5.6 42 +18 +18 1017.8 995.5
20 18.09 СВ 6 н/о н/о +18.5 +8.7 53 +18 +18 1019.3 996.9
21 18.09 СВ 6 н/о н/о +19.0 +8.9 52 +19 +19 1019.7 997.3
23 18.09 С 8 н/о 1/0
[]
+24.7 +12.3 46 +26 +28 жарко 1020.7 998.3
00 19.09 С 6 н/о н/о +26.7 +12.4 41 +28 +28 жарко 1020.0 997.6
02 19.09 В 4 н/о н/о +30.8 +5.3 20 +29 +29 жарко 1018.3 995.9 +15.7
03 19.09 ЮВ 3 н/о н/о +32.1 +3.1 16 +29 +29 жарко 1017.0 994.7
05 19.09 В 4 н/о 10/0
[]
+32.8 +0.8 13 +30 +33 жарко 1015.6 993.3
06 19.09 В 3 н/о н/о +32.3 +1.4 14 +29 +29 жарко 1015.0 992.7
08 19.09 ЮВ 3 н/о 10/0
[]
+31.0 +1.4 15 +28 +28 жарко 1015.4 993.1
09 19.09 Ю 3 н/о н/о +27.8 +2.1 19 +26 +26 жарко 1015.9 993.6
11 19.09 ЮВ 2 н/о 3/0
[]
+23.8 +0.8 22 +23 +23 комфорт 1017.0 994.7
12 19.09 ЮВ 3 н/о н/о +23.1 +0.9 23 +22 +22 комфорт 1017.1 994.8

 

Местоположение метеостанции Longreach Airport (Квинсленд, Австралия): широта -23.43 долгота 144.28 высота над уровнем моря 192 м.

В архиве по умолчанию представлена погода в Longreach Airport за последнюю неделю. Архивные данные за месяц целиком и за предыдущие месяцы, начиная с января 2011 года, Вы можете получить, выбрав интересующий диапазон дат из раскрывающегося списка и нажав кнопку "Ввод!".

Внимание! Время в таблицах - всемирное. Для получения местного времени необходимо прибавить поправку, которая в Longreach Airport равна 10 ч.

Смотрите также архив погоды в соседних городах и на ближайших метеорологических станциях:

Погода в Blackall Airport (Квинсленд, Австралия) (161 км)
Погода в Winton Airport (Квинсленд, Австралия) (170 км)
Погода в Hughenden Airport (Квинсленд, Австралия) (290 км)
Погода в Richmond Airport (Квинсленд, Австралия) (327 км)
Погода в Lochington (Квинсленд, Австралия) (335 км)
Погода в Clermont Airport (Квинсленд, Австралия) (349 км)
Погода в Charleville Aero (Квинсленд, Австралия) (387 км)
Погода в Trepell Airport (Квинсленд, Австралия) (392 км)
Погода в Emerald Airport (Квинсленд, Австралия) (398 км)
Погода в Julia Creek Airport (Квинсленд, Австралия) (404 км)

Пояснения к столбцам:

Ветер - указаны скорость ветра в м/с - средняя за 10 мин, порывы в срок и между сроками (в фигурных скобках) и направление, откуда дует ветер: С - северный, СВ - северо-восточный, В - восточный, ЮВ - юго-восточный, Ю - южный, ЮЗ - юго-западный, З - западный, СЗ - северо-западный.
Видимость - горизонтальная дальность видимости в метрах или километрах. При видимости от 1 до 10 км при отсутствии осадков обычно наблюдается дымка, при ухудшении видимости до 1 км и менее - туман. В сухую погоду видимость может ухудшаться дымом, пылью или мглою.
Явления - указаны атмосферные явления, наблюдавшиеся в срок или в последний час перед сроком; фигурными скобками обозначены явления, наблюдавшиеся между сроками (за 1-3 часа до срока); квадратными скобками обозначены град или гололедные отложения с указанием их диаметра в мм.
Облачность - указаны через наклонную черту общая и нижняя облачность в баллах и высота нижней границы облаков в метрах; квадратными скобками обозначены формы облаков: Ci - перистые, Cs - перисто-слоистые, Cc - перисто-кучевые, Ac - высококучевые, As - высокослоистые, Sc - слоисто-кучевые, Ns - слоисто-дождевые, Cu - кучевые, Cb - кучево-дождевые. Подробнее классификацию облаков см. в Атласе облаков (PDF).
T - Температура воздуха - температура, измеренная на высоте 2 м над землей.
Td - Температура точки росы - температура, при понижении до которой содержащийся в воздухе водяной пар достигнет насыщения.
f - Относительная влажность воздуха - влажноcть воздуха, измеренная на высоте 2 м над землей.
Te - Эффективная температура - температура, которую ощущает одетый по сезону человек в тени. Характеристика душности погоды. При расчете учитывается влияние влажности воздуха и скорости ветра на теплоощущения человека.
Tes - Эффективная температура на солнце - температура, которую ощущает человек, с поправкой на солнечный нагрев. Характеристика знойности погоды. Зависит от высоты солнца над горизонтом, облачности и скорости ветра. Ночью, в пасмурную погоду, а также при ветре 12 м/с и более поправка равна нулю.
P - Атмосферное давление - приведенное к уровню моря атмосферное давление.
Po - Атмосферное давление - измеренное на уровне метеостанции атмосферное давление.
Tmin - Минимальная температура - минимум температуры воздуха на высоте 2 м над землей.
Tmax - Максимальная температура - максимум температуры воздуха на высоте 2 м над землей.
R - Количество осадков - Количество выпавших осадков за период времени, мм. При наведении курсора мыши на число - период времени, за который выпало указанное количество осадков.
R24 - Количество осадков - Количество выпавших осадков за 24 часа, мм.
S - Снежный покров - Высота снежного покрова, см. При наведении курсора мыши на число - состояние снежного покрова и степень покрытия местности в баллах.